Hot Springs, VA

9:07 AM EST on January 24, 2017 (GMT -0500)
Ingalls

Weather History for KHSP - November, 2011

Change the Weather History Date:

Monday, November 21, 2011

  Actual Average Record
Temperature  
Mean Temperature 52 °F -  
Max Temperature 53 °F 43 °F 62 °F (2007)
Min Temperature 51 °F 31 °F 10 °F (2000)
Degree Days  
Heating Degree Days 13    
Growing Degree Days 2 (Base 50)    
Moisture  
Dew Point 52 °F    
Average Humidity 99    
Maximum Humidity 100    
Minimum Humidity 94    
Precipitation  
Precipitation 0.00 in - - ()
Sea Level Pressure  
Sea Level Pressure 30.27 in    
Wind  
Wind Speed 12 mph (West)    
Max Wind Speed 16 mph    
Max Gust Speed 21 mph    
Visibility 6 miles    
Events Fog , Rain    
Averages and records for this station are not official NWS values.
T = Trace of Precipitation, MM = Missing Value Source: NWS Daily Summary

Daily Weather History Graph

Daily Weather History Graph

Search for Another Location

Airport or City:

Trip Planner

Search our weather history database for the weather conditions in past years. The results will help you decide how hot, cold, wet, or windy it might be!

Date:

Astronomy

Nov. 21, 2011 Rise Set
Actual Time 7:05 AM EST 5:03 PM EST
Civil Twilight 6:37 AM EST 5:32 PM EST
Nautical Twilight 6:05 AM EST 6:04 PM EST
Astronomical Twilight 5:34 AM EST 6:35 PM EST
Moon 2:45 AM EST (11/21) 2:22 PM EST (11/21)
Length of Visible Light 10h 54m
Length of Day
9h 57m
Waning Crescent, 18% of the Moon is Illuminated
Nov 21
Waning Crescent
Nov 25
New
Dec 2
First Quarter
Dec 10
Full
Dec 17
Last Quarter

Hourly Weather History & Observations

Time (EST) Temp. Dew Point Humidity Pressure Visibility Wind Dir Wind Speed Gust Speed Precip Events Conditions
12:15 AM 51.8 °F 51.8 °F 100% 30.23 in 7.0 mi West 15.0 mph - N/A   Overcast
12:35 AM 51.8 °F 51.8 °F 100% 30.23 in 10.0 mi West 15.0 mph - N/A   Overcast
12:55 AM 51.8 °F 51.8 °F 100% 30.22 in 10.0 mi West 16.1 mph 20.7 mph N/A   Overcast
1:15 AM 51.8 °F 51.8 °F 100% 30.22 in 10.0 mi West 13.8 mph 20.7 mph N/A   Overcast
1:35 AM 51.8 °F 51.8 °F 100% 30.22 in 7.0 mi West 15.0 mph 19.6 mph N/A   Overcast
1:55 AM 51.8 °F 51.8 °F 100% 30.22 in 1.0 mi West 13.8 mph 20.7 mph N/A   Overcast
2:15 AM 51.8 °F 51.8 °F 100% 30.22 in 0.2 mi West 15.0 mph - N/A Fog Fog
2:35 AM 51.8 °F 51.8 °F 100% 30.21 in 0.2 mi West 9.2 mph - N/A Fog Fog
2:55 AM 51.8 °F 51.8 °F 100% 30.22 in 0.2 mi West 11.5 mph - N/A Rain Light Rain
3:35 AM 51.8 °F 51.8 °F 100% 30.23 in 0.2 mi West 12.7 mph - N/A   Drizzle
3:55 AM 51.8 °F 51.8 °F 100% 30.23 in 0.2 mi West 12.7 mph - N/A   Drizzle
4:15 AM 51.8 °F 51.8 °F 100% 30.23 in 0.2 mi West 10.4 mph 19.6 mph N/A   Drizzle
4:35 AM 51.8 °F 51.8 °F 100% 30.24 in 0.2 mi West 15.0 mph - N/A   Heavy Drizzle
4:55 AM 51.8 °F 51.8 °F 100% 30.24 in 0.2 mi West 9.2 mph 17.3 mph N/A   Drizzle
5:15 AM 51.8 °F 51.8 °F 100% 30.24 in 0.2 mi West 10.4 mph - N/A   Drizzle
5:35 AM 51.8 °F 51.8 °F 100% 30.25 in 0.2 mi West 10.4 mph - N/A   Drizzle
5:55 AM 51.8 °F 51.8 °F 100% 30.26 in 0.2 mi West 10.4 mph 17.3 mph N/A   Drizzle
6:15 AM 51.8 °F 51.8 °F 100% 30.26 in 0.2 mi West 10.4 mph - N/A   Light Drizzle
6:35 AM 51.8 °F 51.8 °F 100% 30.27 in 0.2 mi West 6.9 mph - N/A   Light Drizzle
6:55 AM 51.8 °F 51.8 °F 100% 30.28 in 0.2 mi West 9.2 mph - N/A   Drizzle
7:15 AM 51.8 °F 51.8 °F 100% 30.29 in 0.2 mi West 9.2 mph - N/A   Drizzle
7:35 AM 51.8 °F 51.8 °F 100% 30.30 in 0.2 mi West 9.2 mph - N/A   Drizzle
7:55 AM 51.8 °F 51.8 °F 100% 30.30 in 0.2 mi West 9.2 mph - N/A   Drizzle
8:15 AM 51.8 °F 51.8 °F 100% 30.30 in 0.2 mi WNW 8.1 mph - N/A   Drizzle
8:35 AM 51.8 °F 51.8 °F 100% 30.31 in 0.2 mi West 9.2 mph - N/A   Drizzle
9:15 AM 51.8 °F 51.8 °F 100% 30.32 in 0.2 mi West 5.8 mph - N/A Fog Fog
9:35 AM 51.8 °F 51.8 °F 100% 30.31 in 1.0 mi West 3.5 mph - N/A   Overcast
9:55 AM 51.8 °F 51.8 °F 100% 30.31 in 10.0 mi West 6.9 mph - N/A   Overcast
10:15 AM 53.6 °F 53.6 °F 100% 30.32 in 10.0 mi West 6.9 mph - N/A   Overcast
10:35 AM 51.8 °F 51.8 °F 100% 30.32 in 7.0 mi West 8.1 mph - N/A   Overcast
10:55 AM 53.6 °F 53.6 °F 100% 30.31 in 4.0 mi West 8.1 mph - N/A   Overcast
11:15 AM 53.6 °F 53.6 °F 100% 30.31 in 10.0 mi West 8.1 mph - N/A   Overcast
11:35 AM 53.6 °F 53.6 °F 100% 30.30 in 10.0 mi West 8.1 mph - N/A   Overcast
11:55 AM 53.6 °F 53.6 °F 100% 30.29 in 10.0 mi West 9.2 mph - N/A   Overcast
12:15 PM 53.6 °F 53.6 °F 100% 30.28 in 10.0 mi West 9.2 mph - N/A   Overcast
12:35 PM 53.6 °F 53.6 °F 100% 30.28 in 10.0 mi West 8.1 mph - N/A   Overcast
12:55 PM 53.6 °F 53.6 °F 100% 30.27 in 10.0 mi West 10.4 mph - N/A   Overcast
1:15 PM 53.6 °F 53.6 °F 100% 30.27 in 10.0 mi West 8.1 mph - N/A   Overcast
1:35 PM 53.6 °F 53.6 °F 100% 30.27 in 10.0 mi West 8.1 mph - N/A   Overcast
1:55 PM 53.6 °F 53.6 °F 100% 30.26 in 10.0 mi West 10.4 mph - N/A   Overcast
2:15 PM 53.6 °F 53.6 °F 100% 30.27 in 10.0 mi West 11.5 mph - N/A   Overcast
2:35 PM 53.6 °F 53.6 °F 100% 30.27 in 10.0 mi West 12.7 mph - N/A   Overcast
2:55 PM 53.6 °F 53.6 °F 100% 30.27 in 10.0 mi West 11.5 mph - N/A   Overcast
3:15 PM 53.6 °F 53.6 °F 100% 30.26 in 10.0 mi West 9.2 mph - N/A   Overcast
3:35 PM 53.6 °F 53.6 °F 100% 30.27 in 10.0 mi West 11.5 mph - N/A   Overcast
3:55 PM 53.6 °F 53.6 °F 100% 30.27 in 10.0 mi West 11.5 mph - N/A   Overcast
4:15 PM 53.6 °F 53.6 °F 100% 30.27 in 10.0 mi West 9.2 mph - N/A   Overcast
4:35 PM 53.6 °F 51.8 °F 94% 30.27 in 10.0 mi West 11.5 mph - N/A   Overcast
4:55 PM 53.6 °F 51.8 °F 94% 30.27 in 10.0 mi West 8.1 mph - N/A   Overcast
5:15 PM 53.6 °F 51.8 °F 94% 30.27 in 10.0 mi West 10.4 mph - N/A   Overcast
5:55 PM 53.6 °F 51.8 °F 94% 30.28 in 10.0 mi West 11.5 mph 17.3 mph N/A   Overcast
6:15 PM 53.6 °F 51.8 °F 94% 30.28 in 10.0 mi West 11.5 mph - N/A   Overcast
6:35 PM 53.6 °F 51.8 °F 94% 30.28 in 10.0 mi West 8.1 mph - N/A   Overcast
6:55 PM 53.6 °F 51.8 °F 94% 30.28 in 10.0 mi West 9.2 mph - N/A   Overcast
7:15 PM 53.6 °F 51.8 °F 94% 30.28 in 4.0 mi West 6.9 mph - N/A Rain Heavy Rain
7:35 PM 53.6 °F 51.8 °F 94% 30.27 in 7.0 mi WSW 9.2 mph - N/A   Light Drizzle
7:55 PM 53.6 °F 53.6 °F 100% 30.27 in 10.0 mi West 8.1 mph - N/A   Overcast
8:15 PM 53.6 °F 51.8 °F 94% 30.28 in 10.0 mi WSW 8.1 mph - N/A   Overcast
8:35 PM 51.8 °F 51.8 °F 100% 30.27 in 10.0 mi WSW 6.9 mph - N/A   Mostly Cloudy
8:55 PM 51.8 °F 51.8 °F 100% 30.27 in 10.0 mi SW 5.8 mph - N/A   Overcast
9:15 PM 53.6 °F 53.6 °F 100% 30.27 in 10.0 mi SSW 4.6 mph - N/A   Overcast
9:35 PM 53.6 °F 51.8 °F 94% 30.27 in 10.0 mi SSW 4.6 mph - N/A   Overcast
9:55 PM 53.6 °F 51.8 °F 94% 30.27 in 10.0 mi SW 4.6 mph - N/A   Overcast
10:35 PM 51.8 °F 51.8 °F 100% 30.27 in 10.0 mi Calm Calm - N/A   Overcast
10:55 PM 51.8 °F 51.8 °F 100% 30.27 in 10.0 mi SSW 3.5 mph - N/A   Mostly Cloudy
11:15 PM 51.8 °F 51.8 °F 100% 30.26 in 10.0 mi South 3.5 mph - N/A   Overcast
11:35 PM 51.8 °F 50.0 °F 94% 30.26 in 10.0 mi SSW 4.6 mph - N/A   Mostly Cloudy
11:55 PM 51.8 °F 51.8 °F 100% 30.26 in 10.0 mi South 5.8 mph - N/A   Mostly Cloudy